User: anonymous   Login
Location: York
(31.8935°S, 116.7682°E)
Time: 23:03:22
(UTC+08:00)
Language:

ITUPSAT 1 - Orbit

View from above orbital plane
View from above orbital plane
View from above satellite
View from above satellite

Ground track
Ground track

The orbit data is extracted from the following two-line orbital elements,

1 35935U 09051E   21214.51393919  .00000089  00000-0  31539-4 0  9992
2 35935  98.6070  57.9068 0007447 328.8555  31.2199 14.55744922629476
Epoch (UTC): 02 August 2021 12:20:04
Eccentricity: 0.0007447
inclination: 98.6070°
perigee height: 701 km
apogee height: 712 km
right ascension of ascending node: 57.9068°
argument of perigee: 328.8555°
revolutions per day: 14.55744922
mean anomaly at epoch: 31.2199°
orbit number at epoch: 62947

The dashed part of the orbit path shows where the satellite is in the earth's shadow,  

DLR